Regional Weather Roundup
Issued by NWS Charleston, WV

Home | Current Version | Previous Version | Text Only | Print | Product List | Glossary Off
Versions: 1 2 3 4 5 6 7 8 9 10 11 12 13 14 15 16 17 18 19 20 21 22 23 24 25 26 27 28 29 30 31 32 33 34 35 36 37 38 39 40 41 42 43 44 45 46 47 48 49 50

000
ASUS41 KRLX 061210
RWRRLX
West Virginia Regional Weather Roundup
National Weather Service Charleston WV
800 AM EDT FRI MAY 06 2016

Note: "fair" indicates few or no clouds below 12,000 feet with no
significant weather and/or obstructions to visibility.

WVZ003-061300-
Northern Panhandle of West Virginia

CITY           SKY/WX    TMP DP  RH WIND       PRES   REMARKS
WHEELING       PTSUNNY   49  42  77 N8        29.83R
$$

WVZ009-061300-
Northwest West Virginia

CITY           SKY/WX    TMP DP  RH WIND       PRES   REMARKS
PARKERSBURG    PTSUNNY   49  43  80 NW6       29.88R
$$

WVZ006-061300-
Western West Virginia

CITY           SKY/WX    TMP DP  RH WIND       PRES   REMARKS
HUNTINGTON     PTSUNNY   52  42  69 NW8       29.89R
$$

WVZ015-061300-
West Central West Virginia

CITY           SKY/WX    TMP DP  RH WIND       PRES   REMARKS
CHARLESTON       N/A     51  45  79 NW5       29.86R
$$

WVZ022-031-061300-
North Central West Virginia

CITY           SKY/WX    TMP DP  RH WIND       PRES   REMARKS
CLARKSBURG     CLOUDY    50  46  86 VRB3      29.81R
MORGANTOWN     CLOUDY    50  44  80 N3        29.81R
$$

WVZ025-035-042-045-061300-
Southern West Virginia

CITY           SKY/WX    TMP DP  RH WIND       PRES   REMARKS
BECKLEY        CLOUDY    45  42  89 N8        29.82R
LOGAN          NOT AVBL
BLUEFIELD      CLOUDY    43  42  97 NW5       29.83R
LEWISBURG      PTSUNNY   48  42  78 NW8       29.77S
$$

WVZ047-061300-
Northern Mountains of West Virginia

CITY           SKY/WX    TMP DP  RH WIND       PRES   REMARKS
ELKINS         LGT RAIN  47  43  86 NW8       29.79R
$$

WVZ052-061300-
Eastern Panhandle of West Virginia

CITY           SKY/WX    TMP DP  RH WIND       PRES   REMARKS
MARTINSBURG    LGT RAIN  51  48  89 N7        29.71R
PETERSBURG     CLOUDY    52  50  94 CALM      29.76S
$$



USA.gov is the U.S. government's official web portal to all federal, state and local government web resources and services.